Flag for U.S.A. Weather past 2 weeks in Woodstock, New York, U.S.A.

Now
68 °F

Overcast.


Feels Like: 68 °F
Forecast: 47 / 67 °F
Wind: 3 mph from North

Location: Dutchess County Airport

Current Time: Sep 16, 2014 at 3:39:30 PM

Latest Report: Sep 16, 2014 at 2:53 PM


Visibility: 10 mi

Pressure: 29.96 "Hg

Humidity: 57%

Dew point: 52 °F

Location of WoodstockLocation

Historic Weather in Woodstock — Graph

°F

Woodstock temperature yesterday

Maximum temperature yesterday: 70 °F (at 2:53 PM)
Minimum temperature yesterday: 43 °F (at 2:53 AM)
Average temperature yesterday: 56 °F

Past Weeks' High & Low Weather Summary

 TemperatureHumidityPressure
High91 °F (Sep 2, 2:53 PM)97% (Sep 14, 3:59 AM)30.33 "Hg (Sep 14, 3:59 AM)
Low43 °F (Sep 14, 6:53 AM)31% (Sep 3, 3:53 PM)29.74 "Hg (Sep 2, 10:53 PM)
Average67 °F73%30.07 "Hg
* Reported Sep 1 1:53 PM — Sep 16 1:53 PM, Woodstock, Weather by CustomWeather, © 2014

Note: Actual official high and low records may vary slightly from our data, if they occured in-between our weather recording intervals... More about our weather records

Advertising

Woodstock weather history for previous 24 hours

 ConditionsComfort  
Time TempWeatherWind HumidityBarometerVisibility
1:53 PM
Sep 16
68 °FMore clouds than sun.5 mph59%29.96 "Hg10 mi
1:00 PM68 °FPassing clouds.5 mph63%29.98 "Hg10 mi
11:53 AM61 °FPartly sunny.No wind81%29.99 "Hg10 mi
10:53 AM59 °FMostly cloudy.3 mph87%30.01 "Hg10 mi
9:53 AM57 °FMore clouds than sun.No wind90%30.01 "Hg7 mi
8:53 AM56 °FLight rain. Fog.3 mph93%30.01 "Hg4 mi
8:01 AM56 °FLight rain. Fog.3 mph90%30.02 "Hg2 mi
7:53 AM56 °FRain. Fog.No wind90%30.01 "Hg3 mi
6:53 AM56 °FLight rain. Mostly cloudy.5 mph90%30.00 "Hg8 mi
5:53 AM56 °FOvercast.3 mph87%29.99 "Hg10 mi
4:53 AM55 °FOvercast.No wind90%30.01 "Hg10 mi
3:53 AM54 °FMostly cloudy.No wind90%30.02 "Hg10 mi
2:53 AM55 °FPassing clouds.No wind83%30.02 "Hg10 mi
1:53 AM55 °FOvercast.No wind87%30.04 "Hg10 mi
12:53 AM55 °FPassing clouds.No wind83%30.04 "Hg10 mi
11:53 PM
Sep 15
55 °FOvercast.No wind80%30.05 "Hg10 mi
10:53 PM53 °FPassing clouds.3 mph89%30.07 "Hg10 mi
9:53 PM54 °FClear.No wind83%30.08 "Hg10 mi
8:53 PM55 °FClear.No wind83%30.07 "Hg10 mi
7:53 PM59 °FSunny.3 mph69%30.08 "Hg10 mi
6:53 PM64 °FSunny.No wind58%30.08 "Hg10 mi
5:53 PM68 °FSunny.3 mph42%30.09 "Hg10 mi
4:53 PM68 °FSunny.5 mph42%30.11 "Hg10 mi
3:53 PM68 °FScattered clouds.6 mph40%30.11 "Hg10 mi
Weather by CustomWeather, © 2014

See weather overviewHow to use our weather pages